{"data":{"norad_id":67696,"intl_designator":"2026-025D","name":"STARLINK-36401","alt_names":[],"object_type":"PAYLOAD","status":"ACTIVE","operator":null,"country":"US","launch_date":"2026-02-07","launch_site_code":"AFWTR","launch_vehicle":null,"mission":null,"orbit_class":"UNKNOWN","rcs_meters":null,"size_class":null,"mass_kg":null,"dimensions":null,"purposes":["comms"],"wikipedia_slug":null,"has_3d_model":false,"image_url":null,"decayed_at":null,"tle_current":{"epoch":"2026-05-25T00:48:29.409408Z","epoch_age_seconds":65968,"freshness":"FRESH","line1":"1 67696U 26025D   26145.03367372  .00018787  00000+0  58273-3 0  9996","line2":"2 67696  97.2839 256.6667 0000715  95.4708 264.6617 15.33448792 17712","mean_motion":15.33448792,"eccentricity":7.15e-5,"inclination_deg":97.2839,"raan_deg":256.6667,"arg_perigee_deg":95.4708,"mean_anomaly_deg":264.6617,"bstar":0.00058273,"rev_number":1771,"period_min":93.905972440193,"perigee_km":465.04256985149,"apogee_km":466.02121450307,"semimajor_km":6843.6688921773,"source":"CELESTRAK","updated_at":"2026-05-25T13:38:21.663162Z"}}}